Location: Berlise
(49.6641°N, 4.1077°E)
Time: 02:06:02
(UTC+00:00)

USA 238 - Pass Details

Date: 27 January 2021
Orbit: 996 x 1216 km, 63.4° (Epoch: 25 February)

Event Time Altitude Azimuth Distance (km) Brightness Sun altitude
Rises 05:52:02 0° 226° (SW) 3,731 6.2 -14.6°
Reaches altitude 10° 05:54:34 10° 227° (SW) 2,800 5.6 -14.2°
Maximum altitude 06:01:10 78° 314° (NW) 1,077 3.6 -13.1°
Drops below altitude 10° 06:08:10 10° 42° (NE) 2,952 6.4 -12.0°
Sets 06:10:55 0° 44° (NE) 3,946 7.1 -11.6°
